Flag for Brazil Weather past 2 weeks in Belém, Para, Brazil

Now
82 °F

Scattered showers. Partly sunny.


Feels Like: 89 °F
Forecast: 74 / 83 °F
Wind: 9 mph from North

Location: Belem Aeroporto

Current Time: Mar 31, 2015 at 12:52:21 PM

Latest Report: Mar 31, 2015 at 12:00 PM


Visibility: N/A

Pressure: 29.92 "Hg

Humidity: 79%

Dew point: 75 °F

Location of BelémLocation

Historic Weather in Belém — Graph

°F

Belém temperature yesterday

Maximum temperature yesterday: 84 °F (at 10:00 AM)
Minimum temperature yesterday: 75 °F (at 4:00 AM)
Average temperature yesterday: 78 °F

Past Weeks' High & Low Weather Summary

 TemperatureHumidityPressure
High88 °F (Mar 17, 1:00 PM)100% (Mar 19, 9:00 PM)30.01 "Hg (Mar 19, 9:00 PM)
Low37 °F (Mar 20, 8:00 PM)22% (Mar 25, 6:00 PM)29.77 "Hg (Mar 16, 5:00 PM)
Average78 °F87%29.89 "Hg
* Reported Mar 16 11:00 AM — Mar 31 11:00 AM, Belém, Weather by CustomWeather, © 2015

Note: Actual official high and low records may vary slightly from our data, if they occured in-between our weather recording intervals... More about our weather records

Advertising

Belém weather history for previous 24 hours

 ConditionsComfort  
Time TempWeatherWind HumidityBarometerVisibility
11:00 AM
Tue, Mar 31
84 °FPartly sunny.6 mph70%29.95 "HgN/A
10:00 AM82 °FPartly sunny.7 mph74%29.95 "HgN/A
9:00 AM82 °FPartly sunny.7 mph79%29.92 "HgN/A
8:00 AM79 °FScattered clouds.5 mph89%29.92 "HgN/A
7:00 AM75 °FPartly sunny.5 mph94%29.89 "HgN/A
6:00 AM75 °FPassing clouds.3 mph94%29.89 "HgN/A
5:00 AM75 °FPassing clouds.2 mph94%29.86 "HgN/A
4:00 AM75 °FPartly cloudy.3 mph94%29.86 "HgN/A
3:00 AM75 °FPassing clouds.2 mph94%29.89 "HgN/A
2:00 AM75 °FPassing clouds.2 mph94%29.89 "HgN/A
1:00 AM75 °FPassing clouds.5 mph94%29.92 "HgN/A
12:00 AM77 °FPassing clouds.3 mph89%29.95 "HgN/A
11:00 PM
Mon, Mar 30
75 °FClear.5 mph94%29.92 "Hg10 mi
10:00 PM77 °FClear.6 mph89%29.92 "Hg10 mi
9:00 PM77 °FClear.5 mph89%29.89 "Hg10 mi
8:00 PM77 °FClear.6 mph89%29.86 "Hg10 mi
7:00 PM77 °FPassing clouds.7 mph94%29.83 "HgN/A
6:00 PM79 °FBroken clouds.5 mph84%29.83 "HgN/A
5:00 PM79 °FBroken clouds.3 mph89%29.83 "HgN/A
4:00 PM77 °FPartly sunny.6 mph94%29.86 "HgN/A
3:00 PMN/ALight rain.7 mphN/AN/AN/A
2:00 PMN/ALight rain.6 mphN/AN/AN/A
1:00 PM81 °FPartly sunny.8 mph84%29.89 "HgN/A
12:00 PM84 °FPartly sunny.7 mph70%29.92 "HgN/A
Weather by CustomWeather, © 2015

See weather overviewHow to use our weather pages